Regional Weather Roundup
Issued by NWS State College, PA

Home | Current Version | Previous Version | Graphics & Text | Print | Product List | Glossary Off
Versions: 1 2 3 4 5 6 7 8 9 10 11 12 13 14 15 16 17 18 19 20 21 22 23 24 25 26 27 28 29 30 31 32 33 34 35 36 37 38 39 40 41 42 43 44 45 46 47 48 49 50

000
ASUS41 KCTP 200703
RWRCTP

REGIONAL WEATHER ROUNDUP
NATIONAL WEATHER SERVICE STATE COLLEGE PA
300 AM EDT SUN AUG 20 2017

Note: "fair" indicates few or no clouds below 12,000 feet with no
significant weather and/or obstructions to visibility.

* = STATION THAT DOES NOT REPORT PRECIPITATION /E.G. RAIN...SNOW...ETC/
    THUNDER OR FOG.

PAZ002>004-007>009-013>016-020>023-029>032-200800-
WESTERN PENNSYLVANIA

CITY           SKY/WX    TMP DP  RH WIND       PRES   REMARKS
ERIE           CLEAR     62  58  86 S7        30.04R
MEADVILLE      CLEAR     59  59 100 CALM      30.08R
FRANKLIN*      CLEAR     55  54  94 SW3       30.09R
NEW CASTLE     FOG       57  57 100 CALM      30.08S VSB 1/4
BEAVER COUNTY  NOT AVBL
BUTLER*        FOG       57  57 100 NE3       30.09S VSB 1/4
PITTSBURGH INT PTCLDY    61  61 100 CALM      30.07S FOG
PITTSBURGH     FOG       61  57  88 S6        30.07S VSB 1/4
INDIANA*       FOG       59  59 100 CALM      30.11S VSB 0
LATROBE        CLEAR     57  57 100 CALM      30.09R
WASHINGTON CO* MOCLDY    57  55  94 CALM      30.08S VSB 1/2
$$

PAZ004>006-010>012-017>019-024>028-033>037-041-042-045-046-049>053-200800-
CENTRAL PENNSYLVANIA

CITY           SKY/WX    TMP DP  RH WIND       PRES   REMARKS
BRADFORD       CLEAR     53  53 100 CALM      30.07F FOG
DUBOIS         FOG       56  54  93 W5        30.08S VSB<1/4
CLEARFIELD     FOG       59  59 100 SW5       30.08R VSB 1/4
JOHNSTOWN      CLEAR     60  58  92 SW3       30.10S
ALTOONA        CLEAR     57  57 100 CALM      30.08S
STATE COLLEGE  PTCLDY    59  58  96 W6        30.07R
WILLIAMSPORT   CLEAR     64  62  93 W7        30.00S
SELINSGROVE    CLEAR     60  60 100 CALM      30.02S
FT INDIANTOWN  CLEAR     65  60  84 W7        30.00S
CAPITAL CITY   CLEAR     64  59  83 W6        30.01S
HARRISBURG     PTCLDY    66  62  87 NW9       30.00S
YORK           CLEAR     61  61 100 CALM      30.02R
$$

PAZ038>040-043-044-047-048-054-055-060>062-067>071-200800-
EASTERN PENNSYLVANIA

CITY           SKY/WX    TMP DP  RH WIND       PRES   REMARKS
SCRANTON       CLOUDY    64  62  93 SW7       30.00R
MOUNT POCONO     N/A     60  60 100 W10       30.00S
ALLENTOWN      CLEAR     63  59  87 SW6       29.98R
QUAKERTOWN*    SUNNY     64  61  88 W3        29.99R
READING        CLEAR     63  63 100 CALM      29.99R
LANCASTER      CLEAR     63  62  97 W7        30.01R
COATESVILLE    SUNNY     66  59  77 NW12      30.01S
POTTSTOWN      CLEAR     63  61  93 NW5       30.00R
BLUE BELL      CLEAR     63  61  94 W5        29.99R
DOYLESTOWN     CLEAR     65  61  87 W3        29.97R
WILLOW GROVE   NOT AVBL
NORTH PHILA    CLEAR     70  60  70 W9        29.98R
PHILADELPHIA   PTCLDY    71  59  65 W6        29.97S
$$




USA.gov is the U.S. government's official web portal to all federal, state and local government web resources and services.